Regional Weather Roundup
Issued by NWS

Home | Current Version | Previous Version | Text Only | Print | Product List | Glossary On
Versions: 1 2 3 4 5 6 7 8 9 10 11 12 13 14 15 16 17 18 19 20 21 22 23 24 25 26 27 28 29 30 31 32 33 34 35 36 37 38 39 40 41 42 43 44 45 46 47 48 49 50
000
ASUS43 KBIS 300010
RWRND

NORTH DAKOTA REGIONAL WEATHER ROUNDUP
NATIONAL WEATHER SERVICE BISMARCK ND
700 PM CDT FRI APR 29 2016

NOTE: "FAIR" INDICATES FEW OR NO CLOUDS BELOW 12,000 FEET WITH NO
SIGNIFICANT WEATHER AND/OR OBSTRUCTIONS TO VISIBILITY.


NDZ001>003-009>011-017-300100-
NORTHWEST NORTH DAKOTA

CITY           SKY/WX    TMP DP  RH WIND       PRES   REMARKS
WILLISTON      MOSUNNY   60  27  28 SE10      30.11F
6HR MIN TEMP:  55; 6HR MAX TEMP:  61;

MINOT          SUNNY     64  20  18 E17       30.14S
MINOT AFB      SUNNY     61  25  26 E15G24    30.13S
$$

NDZ018>021-031>035-040>046-300100-
SOUTHWEST NORTH DAKOTA

CITY           SKY/WX    TMP DP  RH WIND       PRES   REMARKS
BISMARCK       MOSUNNY   60  33  36 E12       30.10R
6HR MIN TEMP:  57; 6HR MAX TEMP:  62;

DICKINSON      PTSUNNY   55  27  34 E13       30.06S
GARRISON         N/A     59  28  30 E16       30.11F
6HR MIN TEMP:  56; 6HR MAX TEMP:  62;

HETTINGER ARPT MOSUNNY   55  29  36 E13G22    30.06F
$$

NDZ004>008-012>016-024-026-027-054-300100-
NORTHEAST NORTH DAKOTA

CITY           SKY/WX    TMP DP  RH WIND       PRES   REMARKS
GRAND FORKS    MOSUNNY   62  29  28 NE12      30.16R
GRND FRKS AFB  SUNNY     61  25  25 E14       30.16R
DEVILS LAKE    SUNNY     59  29  31 NE15      30.17R
$$

NDZ022-023-025-028>030-036>039-047>053-300100-
SOUTHEAST NORTH DAKOTA

CITY           SKY/WX    TMP DP  RH WIND       PRES   REMARKS
FARGO          SUNNY     64  32  30 N14       30.10S
6HR MIN TEMP:  61; 6HR MAX TEMP:  66;

JAMESTOWN      SUNNY     60  31  33 E13       30.10F
$$




USA.gov is the U.S. government's official web portal to all federal, state and local government web resources and services.